Find Starlink 32493

NORAD ID: 62025 Int'l Des: 2024-213 Owner: SPXS Country: US Constellation: starlink operational
LEOCIRCULAR

現在のビュー

3D地球を読み込み中...

About Starlink 32493

Starlink 32493 (NORAD 62025) is a starlink constellation satellite (v2 mini) launched Nov 18, 2024 by SPXS of US. It operates in LEO, CIRCULAR orbit with a mass of 730.00 kg.

次回通過

Passes for default location (London). Set your location on the main map for personalized predictions.

高度履歴

Loading altitude history...

軌道要素

1 62025U 24213T 26263.50388924 .00013980 00000-0 42401-3 0 9990
2 62025 53.1600 339.5577 0001328 97.3243 262.7911 15.34408736103039
Epoch: Sep 20, 2026 • Age: 25 hours

現在のステータス

高度 473.8 km
遠地点 / 近地点 N/A
速度 7.63 km/s
衛星直下点 -33.37°S, 111.15°E
打ち上げ日 Nov 18, 2024
運用期間 1.8 years
タイプ internet

技術仕様

分類 Payload
質量 730.00 kg
乾燥質量 700.00 kg
長さ 0.30 m
スパン 29.00 m
形状 ? Box + pan
製造者 SPXS
バスタイプ Starlink V2M
フェーズステータス In Orbit
所有者/国 SPXS/US

Most Searched